| time (UTC) | temp F | wind direction | speed knots | gust knots | rain 1hr in | rain 24hr in | rain mn in | humidity % | barometer mb |
| 20260906133505 | 72 | 83 | 0.9 | 1.7 | 0.00 | 0.00 | 0.00 | 73 | 1015.9 |
| 20260906133000 | 71 | 99 | 0.9 | 0.9 | 0.00 | 0.00 | 0.00 | 74 | 1016.1 |
| 20260906132500 | 70 | 105 | 2.6 | 4.3 | 0.00 | 0.00 | 0.00 | 75 | 1015.8 |
| 20260906131955 | 70 | 87 | 4.3 | 6.1 | 0.00 | 0.00 | 0.00 | 74 | 1015.8 |
| 20260906131451 | 70 | 74 | 3.5 | 5.2 | 0.00 | 0.00 | 0.00 | 75 | 1015.7 |
| 20260906130946 | 70 | 68 | 1.7 | 2.6 | 0.00 | 0.00 | 0.00 | 75 | 1015.7 |
| 20260906130445 | 70 | 65 | 1.7 | 1.7 | 0.00 | 0.00 | 0.00 | 75 | 1015.6 |
| 20260906125940 | 69 | 116 | 0.9 | 2.6 | 0.00 | 0.00 | 0.00 | 76 | 1015.6 |
| 20260906125438 | 69 | 41 | 2.6 | 2.6 | 0.00 | 0.00 | 0.00 | 77 | 1015.8 |
| 20260906124937 | 69 | 93 | 1.7 | 2.6 | 0.00 | 0.00 | 0.00 | 77 | 1015.7 |
| 20260906124434 | 69 | 59 | 0.0 | 0.9 | 0.00 | 0.00 | 0.00 | 79 | 1015.6 |
| 20260906123933 | 68 | 84 | 0.9 | 0.9 | 0.00 | 0.00 | 0.00 | 79 | 1015.6 |
| 20260906123432 | 68 | 113 | 0.0 | 0.9 | 0.00 | 0.00 | 0.00 | 80 | 1015.5 |
| 20260906122927 | 68 | 85 | 0.9 | 0.9 | 0.00 | 0.00 | 0.00 | 80 | 1015.7 |
| 20260906122421 | 67 | 74 | 1.7 | 1.7 | 0.00 | 0.00 | 0.00 | 81 | 1015.3 |
| 20260906121919 | 68 | 84 | 0.9 | 1.7 | 0.00 | 0.00 | 0.00 | 80 | 1015.6 |
| 20260906121414 | 68 | 110 | 0.9 | 0.9 | 0.00 | 0.00 | 0.00 | 80 | 1015.5 |
| 20260906120910 | 67 | 96 | 0.9 | 1.7 | 0.00 | 0.00 | 0.00 | 81 | 1015.3 |
| 20260906120406 | 67 | 92 | 1.7 | 1.7 | 0.00 | 0.00 | 0.00 | 82 | 1015.0 |
| 20260906115902 | 67 | 138 | 1.7 | 2.6 | 0.00 | 0.00 | 0.00 | 82 | 1015.1 |
| 20260906115357 | 67 | 112 | 0.9 | 1.7 | 0.00 | 0.00 | 0.00 | 83 | 1015.2 |
| 20260906114856 | 66 | 58 | 0.9 | 0.9 | 0.00 | 0.00 | 0.00 | 84 | 1015.1 |
| 20260906114352 | 66 | 263 | 0.9 | 0.9 | 0.00 | 0.00 | 0.00 | 85 | 1015.1 |
| 20260906113847 | 66 | 97 | 0.9 | 1.7 | 0.00 | 0.00 | 0.00 | 85 | 1015.2 |
| 20260906113346 | 66 | 85 | 0.9 | 0.9 | 0.00 | 0.00 | 0.00 | 85 | 1014.9 |
| 20260906112841 | 66 | 357 | 2.6 | 4.3 | 0.00 | 0.00 | 0.00 | 85 | 1014.9 |
| 20260906112337 | 66 | 89 | 0.9 | 0.9 | 0.00 | 0.00 | 0.00 | 85 | 1014.7 |
| 20260906111832 | 66 | 80 | 0.0 | 0.9 | 0.00 | 0.00 | 0.00 | 85 | 1014.8 |
| 20260906111331 | 66 | 70 | 0.0 | 0.9 | 0.00 | 0.00 | 0.00 | 85 | 1014.6 |
| 20260906110826 | 66 | 49 | 1.7 | 4.3 | 0.00 | 0.00 | 0.00 | 85 | 1014.6 |
| 20260906110323 | 66 | 92 | 0.0 | 0.0 | 0.00 | 0.00 | 0.00 | 85 | 1014.5 |
| 20260906105821 | 66 | 84 | 0.9 | 0.9 | 0.00 | 0.00 | 0.00 | 85 | 1014.4 |
| 20260906105317 | 66 | 61 | 0.9 | 0.9 | 0.00 | 0.00 | 0.00 | 86 | 1014.4 |
| 20260906104813 | 66 | 93 | 0.0 | 0.0 | 0.00 | 0.00 | 0.00 | 86 | 1014.1 |
| 20260906104311 | 66 | 63 | 0.9 | 0.9 | 0.00 | 0.00 | 0.00 | 86 | 1014.0 |
| 20260906103810 | 66 | 87 | 0.0 | 0.0 | 0.00 | 0.00 | 0.00 | 86 | 1014.2 |
| 20260906103309 | 66 | 75 | 0.9 | 0.9 | 0.00 | 0.00 | 0.00 | 86 | 1014.2 |
| 20260906102805 | 67 | 60 | 1.7 | 1.7 | 0.00 | 0.00 | 0.00 | 85 | 1013.8 |
| 20260906102306 | 67 | 55 | 0.9 | 1.7 | 0.00 | 0.00 | 0.00 | 85 | 1014.2 |
| 20260906101759 | 67 | 88 | 0.9 | 1.7 | 0.00 | 0.00 | 0.00 | 86 | 1014.1 |
| 20260906101254 | 67 | 78 | 0.9 | 1.7 | 0.00 | 0.00 | 0.00 | 86 | 1013.8 |
| 20260906100749 | 67 | 51 | 0.9 | 1.7 | 0.00 | 0.00 | 0.00 | 86 | 1014.0 |
| 20260906100249 | 67 | 66 | 0.9 | 0.9 | 0.00 | 0.00 | 0.00 | 86 | 1014.0 |
| 20260906095744 | 67 | 62 | 1.7 | 1.7 | 0.00 | 0.00 | 0.00 | 86 | 1013.9 |
| 20260906095239 | 67 | 39 | 2.6 | 2.6 | 0.00 | 0.00 | 0.00 | 86 | 1013.9 |
| 20260906094738 | 68 | 87 | 0.0 | 0.9 | 0.00 | 0.00 | 0.00 | 86 | 1013.8 |
| 20260906094234 | 68 | 70 | 2.6 | 2.6 | 0.00 | 0.00 | 0.00 | 86 | 1013.8 |
| 20260906093730 | 68 | 72 | 0.9 | 0.9 | 0.00 | 0.00 | 0.00 | 86 | 1013.8 |
| 20260906093225 | 68 | 83 | 0.9 | 0.9 | 0.00 | 0.00 | 0.00 | 85 | 1013.9 |
| 20260906092721 | 68 | 35 | 0.0 | 0.9 | 0.00 | 0.00 | 0.00 | 86 | 1014.1 |
| 20260906092214 | 68 | 81 | 0.9 | 0.9 | 0.00 | 0.00 | 0.00 | 86 | 1014.0 |
| 20260906091710 | 68 | 33 | 2.6 | 4.3 | 0.00 | 0.00 | 0.00 | 86 | 1013.9 |
| 20260906091207 | 69 | 102 | 0.0 | 0.0 | 0.00 | 0.00 | 0.00 | 86 | 1013.7 |
| 20260906090702 | 69 | 74 | 0.0 | 0.9 | 0.00 | 0.00 | 0.00 | 86 | 1013.7 |
| 20260906090201 | 69 | 40 | 1.7 | 2.6 | 0.00 | 0.00 | 0.00 | 86 | 1013.4 |
| 20260906085701 | 69 | 70 | 0.9 | 0.9 | 0.00 | 0.00 | 0.00 | 86 | 1013.6 |
| 20260906085155 | 69 | 87 | 0.0 | 0.0 | 0.00 | 0.00 | 0.00 | 87 | 1013.5 |
| 20260906084655 | 69 | 74 | 1.7 | 2.6 | 0.00 | 0.00 | 0.00 | 87 | 1013.6 |
| 20260906084154 | 70 | 93 | 0.0 | 0.9 | 0.00 | 0.00 | 0.00 | 87 | 1013.8 |
| 20260906083649 | 70 | 44 | 1.7 | 4.3 | 0.00 | 0.00 | 0.00 | 87 | 1013.7 |
| 20260906083145 | 70 | 78 | 0.9 | 1.7 | 0.00 | 0.00 | 0.00 | 87 | 1013.8 |
| 20260906082640 | 70 | 41 | 0.9 | 1.7 | 0.00 | 0.00 | 0.00 | 88 | 1013.6 |
| 20260906082135 | 70 | 63 | 1.7 | 1.7 | 0.00 | 0.00 | 0.00 | 88 | 1013.8 |
| 20260906081631 | 71 | 52 | 1.7 | 1.7 | 0.00 | 0.00 | 0.00 | 89 | 1013.7 |
| 20260906081126 | 71 | 45 | 2.6 | 2.6 | 0.00 | 0.00 | 0.00 | 89 | 1013.8 |
| 20260906080623 | 71 | 71 | 1.7 | 1.7 | 0.00 | 0.00 | 0.00 | 89 | 1013.6 |
| 20260906080119 | 71 | 84 | 3.5 | 4.3 | 0.00 | 0.00 | 0.00 | 88 | 1013.7 |
| 20260906075618 | 71 | 82 | 1.7 | 2.6 | 0.00 | 0.00 | 0.00 | 88 | 1013.7 |
| 20260906075113 | 71 | 38 | 3.5 | 5.2 | 0.00 | 0.00 | 0.00 | 87 | 1013.6 |
| 20260906074608 | 71 | 54 | 0.9 | 1.7 | 0.00 | 0.00 | 0.00 | 88 | 1013.4 |
| 20260906074107 | 71 | 29 | 3.5 | 5.2 | 0.00 | 0.00 | 0.00 | 88 | 1013.3 |
| 20260906073602 | 71 | 38 | 1.7 | 2.6 | 0.00 | 0.00 | 0.00 | 88 | 1013.5 |
| 20260906073052 | 71 | 37 | 0.9 | 1.7 | 0.00 | 0.00 | 0.00 | 88 | 1013.6 |
| 20260906072546 | 71 | 67 | 0.9 | 0.9 | 0.00 | 0.00 | 0.00 | 88 | 1013.7 |
| 20260906072042 | 71 | 46 | 0.9 | 1.7 | 0.00 | 0.00 | 0.00 | 88 | 1013.3 |
| 20260906071539 | 72 | 70 | 0.9 | 0.9 | 0.00 | 0.00 | 0.00 | 88 | 1013.5 |
| 20260906071033 | 72 | 49 | 0.9 | 1.7 | 0.00 | 0.00 | 0.00 | 88 | 1013.6 |
| 20260906070531 | 72 | 76 | 0.9 | 0.9 | 0.00 | 0.00 | 0.00 | 87 | 1013.6 |
| 20260906070026 | 72 | 43 | 0.9 | 2.6 | 0.00 | 0.00 | 0.00 | 87 | 1013.6 |
| 20260906065525 | 72 | 88 | 0.9 | 0.9 | 0.00 | 0.00 | 0.00 | 87 | 1013.5 |
| 20260906065021 | 72 | 67 | 0.9 | 0.9 | 0.00 | 0.00 | 0.00 | 87 | 1013.7 |
| 20260906064517 | 72 | 80 | 0.9 | 1.7 | 0.00 | 0.00 | 0.00 | 87 | 1013.4 |
| 20260906064017 | 72 | 87 | 1.7 | 2.6 | 0.00 | 0.00 | 0.00 | 87 | 1013.7 |
| 20260906063512 | 72 | 68 | 0.9 | 0.9 | 0.00 | 0.00 | 0.00 | 88 | 1013.9 |
| 20260906063008 | 72 | 67 | 0.9 | 0.9 | 0.00 | 0.00 | 0.00 | 88 | 1013.6 |
| 20260906062502 | 72 | 99 | 0.0 | 0.9 | 0.00 | 0.00 | 0.00 | 88 | 1013.6 |
| 20260906061957 | 72 | 69 | 1.7 | 1.7 | 0.00 | 0.00 | 0.00 | 88 | 1013.6 |
| 20260906061454 | 72 | 67 | 2.6 | 4.3 | 0.00 | 0.00 | 0.00 | 89 | 1013.7 |
| 20260906060953 | 72 | 35 | 1.7 | 2.6 | 0.00 | 0.00 | 0.00 | 90 | 1013.7 |
| 20260906060450 | 72 | 59 | 0.9 | 1.7 | 0.00 | 0.00 | 0.00 | 91 | 1013.8 |
| 20260906055947 | 72 | 55 | 0.9 | 1.7 | 0.00 | 0.00 | 0.00 | 91 | 1013.6 |
| 20260906055442 | 72 | 22 | 2.6 | 4.3 | 0.00 | 0.00 | 0.00 | 92 | 1013.6 |
| 20260906054937 | 72 | 68 | 0.0 | 0.9 | 0.00 | 0.00 | 0.00 | 92 | 1013.6 |
| 20260906054432 | 72 | 68 | 0.0 | 0.9 | 0.00 | 0.00 | 0.00 | 92 | 1013.6 |
| 20260906053928 | 72 | 68 | 0.0 | 0.0 | 0.00 | 0.00 | 0.00 | 92 | 1013.7 |
| 20260906053424 | 72 | 68 | 0.0 | 0.0 | 0.00 | 0.00 | 0.00 | 92 | 1013.5 |
| 20260906052919 | 72 | 67 | 0.0 | 0.9 | 0.00 | 0.00 | 0.00 | 92 | 1013.6 |
| 20260906052416 | 72 | 75 | 0.0 | 0.0 | 0.00 | 0.00 | 0.00 | 92 | 1013.5 |
| 20260906051912 | 72 | 82 | 0.0 | 0.9 | 0.00 | 0.00 | 0.00 | 91 | 1013.8 |
| 20260906051412 | 72 | 84 | 0.0 | 0.0 | 0.00 | 0.00 | 0.00 | 91 | 1013.3 |
| 20260906050909 | 72 | 84 | 0.0 | 0.9 | 0.00 | 0.00 | 0.00 | 91 | 1013.6 |
| 20260906050408 | 72 | 84 | 0.0 | 0.9 | 0.00 | 0.00 | 0.00 | 90 | 1013.5 |
| 20260906045907 | 72 | 84 | 0.9 | 0.9 | 0.00 | 0.00 | 0.00 | 90 | 1013.5 |
| 20260906045406 | 72 | 84 | 0.0 | 0.9 | 0.00 | 0.00 | 0.00 | 89 | 1013.4 |
| 20260906044902 | 73 | 84 | 0.0 | 0.0 | 0.00 | 0.00 | 0.00 | 89 | 1013.2 |
| 20260906044403 | 73 | 84 | 0.0 | 0.0 | 0.00 | 0.00 | 0.00 | 89 | 1013.4 |
| 20260906043858 | 73 | 84 | 0.0 | 0.0 | 0.00 | 0.00 | 0.00 | 89 | 1013.4 |
| 20260906043354 | 73 | 84 | 0.9 | 0.9 | 0.00 | 0.00 | 0.00 | 88 | 1013.0 |
| 20260906042849 | 73 | 84 | 0.0 | 0.0 | 0.00 | 0.00 | 0.00 | 88 | 1013.2 |
| 20260906042348 | 73 | 87 | 0.0 | 0.0 | 0.00 | 0.00 | 0.00 | 88 | 1013.2 |
| 20260906041844 | 73 | 78 | 0.0 | 0.0 | 0.00 | 0.00 | 0.00 | 88 | 1013.3 |
| 20260906041339 | 73 | 80 | 0.0 | 0.0 | 0.00 | 0.00 | 0.00 | 88 | 1013.2 |
| 20260906040839 | 73 | 89 | 0.9 | 0.9 | 0.00 | 0.00 | 0.00 | 88 | 1013.4 |
| 20260906040335 | 73 | 100 | 0.0 | 0.9 | 0.00 | 0.00 | 0.00 | 89 | 1013.2 |
| 20260906035830 | 73 | 50 | 1.7 | 1.7 | 0.00 | 0.34 | 0.34 | 88 | 1013.1 |
| 20260906035325 | 73 | 80 | 1.7 | 2.6 | 0.00 | 0.34 | 0.34 | 88 | 1013.4 |
| 20260906034821 | 73 | 74 | 0.0 | 0.0 | 0.00 | 0.34 | 0.34 | 88 | 1013.1 |
| 20260906034321 | 73 | 86 | 2.6 | 4.3 | 0.00 | 0.34 | 0.34 | 88 | 1013.3 |
| 20260906033816 | 74 | 91 | 0.0 | 0.0 | 0.00 | 0.34 | 0.34 | 87 | 1013.3 |
| 20260906033315 | 74 | 63 | 2.6 | 2.6 | 0.00 | 0.34 | 0.34 | 87 | 1013.2 |
| 20260906032812 | 74 | 76 | 0.0 | 0.9 | 0.00 | 0.34 | 0.34 | 86 | 1013.3 |
| 20260906032308 | 74 | 85 | 0.0 | 0.9 | 0.00 | 0.34 | 0.34 | 86 | 1013.2 |
| 20260906031803 | 74 | 90 | 0.0 | 0.9 | 0.00 | 0.34 | 0.34 | 86 | 1013.3 |
| 20260906031258 | 74 | 87 | 0.9 | 1.7 | 0.00 | 0.34 | 0.34 | 86 | 1013.4 |
| 20260906030758 | 74 | 63 | 2.6 | 4.3 | 0.00 | 0.34 | 0.34 | 86 | 1013.5 |
| 20260906030253 | 74 | 79 | 1.7 | 2.6 | 0.00 | 0.34 | 0.34 | 85 | 1013.8 |
| 20260906025753 | 74 | 108 | 3.5 | 5.2 | 0.00 | 0.34 | 0.34 | 85 | 1013.4 |
| 20260906025247 | 75 | 72 | 0.9 | 1.7 | 0.00 | 0.34 | 0.34 | 85 | 1013.6 |
| 20260906024746 | 75 | 67 | 1.7 | 2.6 | 0.00 | 0.34 | 0.34 | 85 | 1013.5 |
| 20260906024245 | 75 | 88 | 0.9 | 1.7 | 0.00 | 0.34 | 0.34 | 84 | 1013.4 |
| 20260906023741 | 75 | 84 | 4.3 | 6.1 | 0.00 | 0.34 | 0.34 | 84 | 1013.5 |
| 20260906023236 | 75 | 118 | 4.3 | 5.2 | 0.00 | 0.34 | 0.34 | 84 | 1013.5 |
| 20260906022732 | 75 | 87 | 2.6 | 5.2 | 0.00 | 0.34 | 0.34 | 83 | 1013.5 |
| 20260906022227 | 76 | 111 | 2.6 | 2.6 | 0.00 | 0.34 | 0.34 | 83 | 1013.6 |
| 20260906021723 | 76 | 57 | 1.7 | 2.6 | 0.00 | 0.34 | 0.34 | 83 | 1013.7 |
| 20260906021221 | 76 | 77 | 0.9 | 1.7 | 0.00 | 0.34 | 0.34 | 83 | 1013.7 |
| 20260906020717 | 76 | 68 | 0.9 | 1.7 | 0.00 | 0.34 | 0.34 | 83 | 1013.4 |
| 20260906020211 | 76 | 50 | 2.6 | 4.3 | 0.00 | 0.34 | 0.34 | 83 | 1013.5 |
| 20260906015706 | 76 | 88 | 2.6 | 4.3 | 0.00 | 0.34 | 0.34 | 82 | 1013.2 |
| 20260906015205 | 76 | 90 | 3.5 | 5.2 | 0.00 | 0.34 | 0.34 | 82 | 1013.2 |
| 20260906014704 | 76 | 106 | 1.7 | 1.7 | 0.00 | 0.34 | 0.34 | 82 | 1013.3 |
| 20260906014201 | 76 | 96 | 0.0 | 0.9 | 0.00 | 0.34 | 0.34 | 83 | 1013.1 |
| 20260906013656 | 76 | 79 | 0.9 | 0.9 | 0.00 | 0.34 | 0.34 | 83 | 1013.1 |
| 20260906013151 | 76 | 79 | 0.9 | 0.9 | 0.00 | 0.34 | 0.34 | 82 | 1012.8 |
| 20260906012651 | 77 | 80 | 0.0 | 0.0 | 0.00 | 0.34 | 0.34 | 82 | 1013.0 |
| 20260906012145 | 76 | 98 | 0.0 | 0.9 | 0.00 | 0.34 | 0.34 | 82 | 1012.8 |
| 20260906011641 | 76 | 83 | 0.9 | 0.9 | 0.00 | 0.34 | 0.34 | 83 | 1012.6 |
| 20260906011137 | 76 | 57 | 0.0 | 0.9 | 0.00 | 0.34 | 0.34 | 84 | 1012.5 |
| 20260906010632 | 76 | 58 | 0.0 | 0.0 | 0.00 | 0.34 | 0.34 | 84 | 1012.1 |
| 20260906010128 | 76 | 58 | 0.0 | 0.0 | 0.00 | 0.34 | 0.34 | 83 | 1012.1 |
| 20260906005627 | 77 | 58 | 0.0 | 0.0 | 0.00 | 0.34 | 0.34 | 82 | 1011.9 |
| 20260906005127 | 77 | 58 | 0.0 | 0.0 | 0.00 | 0.34 | 0.34 | 82 | 1012.3 |
| 20260906004626 | 77 | 58 | 0.0 | 0.0 | 0.00 | 0.34 | 0.34 | 81 | 1012.3 |
| 20260906004121 | 77 | 58 | 0.0 | 0.0 | 0.00 | 0.34 | 0.34 | 81 | 1012.3 |
| 20260906003616 | 77 | 58 | 0.0 | 0.0 | 0.00 | 0.34 | 0.34 | 81 | 1012.3 |
| 20260906003112 | 77 | 58 | 0.0 | 0.0 | 0.00 | 0.34 | 0.34 | 81 | 1012.5 |
| 20260906002606 | 77 | 58 | 0.0 | 0.0 | 0.00 | 0.34 | 0.34 | 81 | 1012.5 |
| 20260906002101 | 78 | 57 | 0.0 | 0.9 | 0.00 | 0.34 | 0.34 | 80 | 1012.3 |
| 20260906001556 | 78 | 57 | 0.0 | 0.0 | 0.00 | 0.34 | 0.34 | 80 | 1012.1 |
| 20260906001051 | 78 | 57 | 0.0 | 0.0 | 0.00 | 0.34 | 0.34 | 79 | 1012.2 |
| 20260906000547 | 79 | 57 | 0.0 | 0.0 | 0.00 | 0.34 | 0.34 | 78 | 1012.1 |
| 20260906000042 | 79 | 57 | 0.0 | 0.0 | 0.00 | 0.34 | 0.34 | 76 | 1012.3 |
| 20260905235535 | 79 | 57 | 0.0 | 0.9 | 0.00 | 0.34 | 0.34 | 75 | 1012.0 |
| 20260905235030 | 80 | 58 | 0.9 | 0.9 | 0.00 | 0.34 | 0.34 | 74 | 1012.4 |
| 20260905234527 | 81 | 58 | 0.9 | 0.9 | 0.00 | 0.34 | 0.34 | 73 | 1012.1 |
| 20260905234026 | 81 | 59 | 0.9 | 0.9 | 0.00 | 0.34 | 0.34 | 71 | 1012.4 |
| 20260905233521 | 82 | 73 | 0.0 | 0.0 | 0.00 | 0.34 | 0.34 | 71 | 1012.1 |
| 20260905233021 | 83 | 88 | 0.9 | 0.9 | 0.00 | 0.34 | 0.34 | 70 | 1012.0 |
| 20260905232516 | 83 | 168 | 0.9 | 0.9 | 0.00 | 0.34 | 0.34 | 68 | 1011.8 |
| 20260905232012 | 83 | 111 | 1.7 | 1.7 | 0.00 | 0.34 | 0.34 | 66 | 1012.2 |
| 20260905231507 | 84 | 57 | 0.9 | 0.9 | 0.00 | 0.34 | 0.34 | 65 | 1011.9 |
| 20260905231003 | 84 | 72 | 0.0 | 0.9 | 0.00 | 0.34 | 0.34 | 65 | 1011.9 |
| 20260905230502 | 85 | 124 | 0.9 | 0.9 | 0.00 | 0.34 | 0.34 | 64 | 1012.0 |
| 20260905230000 | 85 | 111 | 0.9 | 0.9 | 0.00 | 0.34 | 0.34 | 62 | 1011.7 |
| 20260905225455 | 86 | 71 | 1.7 | 1.7 | 0.00 | 0.34 | 0.34 | 61 | 1012.0 |
| 20260905224951 | 86 | 188 | 1.7 | 1.7 | 0.00 | 0.34 | 0.34 | 61 | 1012.0 |
| 20260905224446 | 86 | 73 | 0.9 | 1.7 | 0.00 | 0.34 | 0.34 | 60 | 1012.2 |
| 20260905223945 | 86 | 140 | 2.6 | 2.6 | 0.00 | 0.34 | 0.34 | 59 | 1012.0 |
| 20260905223443 | 87 | 271 | 2.6 | 2.6 | 0.00 | 0.34 | 0.34 | 57 | 1012.0 |
| 20260905222938 | 87 | 216 | 3.5 | 5.2 | 0.00 | 0.34 | 0.34 | 57 | 1011.8 |
| 20260905222438 | 86 | 104 | 0.9 | 0.9 | 0.00 | 0.34 | 0.34 | 58 | 1012.0 |
| 20260905221933 | 86 | 134 | 1.7 | 1.7 | 0.00 | 0.34 | 0.34 | 59 | 1012.0 |
| 20260905221430 | 87 | 50 | 3.5 | 5.2 | 0.00 | 0.34 | 0.34 | 58 | 1011.8 |
| 20260905220926 | 87 | 294 | 2.6 | 2.6 | 0.00 | 0.34 | 0.34 | 58 | 1012.0 |
| 20260905220422 | 87 | 52 | 0.9 | 1.7 | 0.00 | 0.34 | 0.34 | 56 | 1011.9 |
| 20260905215920 | 87 | 249 | 0.9 | 1.7 | 0.00 | 0.34 | 0.34 | 56 | 1011.9 |
| 20260905215416 | 87 | 50 | 2.6 | 2.6 | 0.00 | 0.34 | 0.34 | 55 | 1012.2 |
| 20260905214913 | 87 | 113 | 1.7 | 1.7 | 0.00 | 0.34 | 0.34 | 57 | 1011.9 |
| 20260905214408 | 88 | 286 | 4.3 | 5.2 | 0.00 | 0.34 | 0.34 | 55 | 1011.9 |
| 20260905213908 | 87 | 275 | 2.6 | 2.6 | 0.00 | 0.34 | 0.34 | 55 | 1011.8 |
| 20260905213404 | 87 | 85 | 0.9 | 1.7 | 0.00 | 0.34 | 0.34 | 56 | 1011.8 |
| 20260905212859 | 86 | 70 | 0.9 | 0.9 | 0.00 | 0.34 | 0.34 | 56 | 1011.6 |
| 20260905212354 | 85 | 63 | 1.7 | 1.7 | 0.00 | 0.34 | 0.34 | 57 | 1012.0 |
| 20260905211847 | 87 | 333 | 2.6 | 4.3 | 0.00 | 0.34 | 0.34 | 55 | 1011.9 |
| 20260905211343 | 86 | 263 | 1.7 | 1.7 | 0.00 | 0.34 | 0.34 | 55 | 1011.8 |
| 20260905210840 | 87 | 45 | 3.5 | 4.3 | 0.00 | 0.34 | 0.34 | 54 | 1011.9 |
| 20260905210340 | 88 | 59 | 0.9 | 0.9 | 0.00 | 0.34 | 0.34 | 53 | 1011.8 |
| 20260905205839 | 87 | 132 | 2.6 | 2.6 | 0.00 | 0.34 | 0.34 | 54 | 1011.8 |
| 20260905205339 | 88 | 46 | 1.7 | 1.7 | 0.00 | 0.34 | 0.34 | 53 | 1012.0 |
| 20260905204833 | 88 | 39 | 2.6 | 2.6 | 0.00 | 0.34 | 0.34 | 53 | 1011.9 |
| 20260905204330 | 88 | 109 | 1.7 | 1.7 | 0.00 | 0.34 | 0.34 | 52 | 1012.0 |
| 20260905203827 | 88 | 105 | 0.9 | 0.9 | 0.00 | 0.34 | 0.34 | 51 | 1012.1 |
| 20260905203324 | 88 | 209 | 2.6 | 2.6 | 0.00 | 0.34 | 0.34 | 51 | 1011.9 |
| 20260905202819 | 87 | 241 | 2.6 | 2.6 | 0.00 | 0.34 | 0.34 | 52 | 1012.2 |
| 20260905202313 | 88 | 246 | 2.6 | 2.6 | 0.00 | 0.34 | 0.34 | 52 | 1012.2 |
| 20260905201809 | 90 | 184 | 2.6 | 2.6 | 0.00 | 0.34 | 0.34 | 48 | 1012.1 |
| 20260905201304 | 90 | 159 | 0.9 | 0.9 | 0.00 | 0.34 | 0.34 | 48 | 1012.1 |
| 20260905200759 | 89 | 181 | 1.7 | 1.7 | 0.00 | 0.34 | 0.34 | 50 | 1012.3 |
| 20260905200255 | 90 | 108 | 1.7 | 1.7 | 0.00 | 0.34 | 0.34 | 50 | 1012.2 |
| 20260905195752 | 91 | 199 | 2.6 | 4.3 | 0.00 | 0.34 | 0.34 | 50 | 1012.2 |
| 20260905195247 | 90 | 129 | 1.7 | 1.7 | 0.00 | 0.34 | 0.34 | 51 | 1012.5 |
| 20260905194744 | 89 | 139 | 1.7 | 2.6 | 0.00 | 0.34 | 0.34 | 53 | 1012.4 |
| 20260905194243 | 90 | 170 | 3.5 | 4.3 | 0.00 | 0.34 | 0.34 | 52 | 1012.6 |
| 20260905193742 | 89 | 145 | 2.6 | 2.6 | 0.00 | 0.34 | 0.34 | 52 | 1012.4 |
| 20260905193237 | 87 | 111 | 0.9 | 1.7 | 0.00 | 0.34 | 0.34 | 55 | 1012.6 |
| 20260905192733 | 88 | 147 | 0.9 | 0.9 | 0.00 | 0.34 | 0.34 | 54 | 1012.8 |
| 20260905192229 | 88 | 235 | 2.6 | 4.3 | 0.00 | 0.34 | 0.34 | 54 | 1012.8 |
| 20260905191728 | 89 | 140 | 2.6 | 4.3 | 0.00 | 0.34 | 0.34 | 54 | 1012.7 |
| 20260905191226 | 87 | 217 | 2.6 | 2.6 | 0.00 | 0.34 | 0.34 | 55 | 1012.8 |
| 20260905190726 | 85 | 163 | 1.7 | 1.7 | 0.00 | 0.34 | 0.34 | 57 | 1013.1 |
| 20260905190224 | 86 | 275 | 4.3 | 5.2 | 0.00 | 0.34 | 0.34 | 57 | 1013.2 |
| 20260905185724 | 86 | 261 | 4.3 | 6.1 | 0.00 | 0.34 | 0.34 | 56 | 1013.2 |
| 20260905185218 | 87 | 96 | 1.7 | 1.7 | 0.00 | 0.34 | 0.34 | 57 | 1013.1 |
| 20260905184713 | 86 | 177 | 2.6 | 2.6 | 0.00 | 0.34 | 0.34 | 57 | 1013.0 |
| 20260905184212 | 88 | 211 | 3.5 | 4.3 | 0.00 | 0.34 | 0.34 | 54 | 1013.2 |
| 20260905183712 | 87 | 153 | 1.7 | 1.7 | 0.00 | 0.34 | 0.34 | 55 | 1013.3 |
| 20260905183207 | 86 | 185 | 2.6 | 4.3 | 0.00 | 0.34 | 0.34 | 55 | 1013.2 |
| 20260905182701 | 87 | 70 | 0.9 | 0.9 | 0.00 | 0.34 | 0.34 | 56 | 1013.3 |
| 20260905182200 | 85 | 133 | 0.9 | 0.9 | 0.00 | 0.34 | 0.34 | 60 | 1013.5 |
| 20260905181656 | 85 | 178 | 2.6 | 2.6 | 0.00 | 0.34 | 0.34 | 59 | 1013.5 |
| 20260905181154 | 85 | 140 | 0.9 | 1.7 | 0.00 | 0.34 | 0.34 | 60 | 1013.3 |
| 20260905180649 | 84 | 124 | 2.6 | 2.6 | 0.00 | 0.34 | 0.34 | 61 | 1013.6 |
| 20260905180145 | 86 | 205 | 4.3 | 5.2 | 0.00 | 0.34 | 0.34 | 59 | 1013.8 |
| 20260905175643 | 85 | 219 | 2.6 | 2.6 | 0.00 | 0.34 | 0.34 | 58 | 1013.5 |
| 20260905175139 | 86 | 207 | 1.7 | 2.6 | 0.00 | 0.34 | 0.34 | 58 | 1013.7 |
| 20260905174635 | 84 | 203 | 0.9 | 2.6 | 0.00 | 0.34 | 0.34 | 63 | 1013.8 |
| 20260905174130 | 84 | 227 | 0.9 | 1.7 | 0.00 | 0.34 | 0.34 | 64 | 1013.9 |
| 20260905173626 | 84 | 281 | 3.5 | 4.3 | 0.00 | 0.34 | 0.34 | 65 | 1013.9 |
| 20260905173123 | 86 | 111 | 0.9 | 1.7 | 0.00 | 0.34 | 0.34 | 60 | 1013.7 |
| 20260905172621 | 85 | 142 | 2.6 | 2.6 | 0.00 | 0.34 | 0.34 | 60 | 1013.8 |
| 20260905172116 | 85 | 218 | 2.6 | 4.3 | 0.00 | 0.34 | 0.34 | 62 | 1014.0 |
| 20260905171612 | 84 | 127 | 0.9 | 0.9 | 0.00 | 0.34 | 0.34 | 64 | 1014.0 |
| 20260905171108 | 84 | 159 | 1.7 | 1.7 | 0.00 | 0.34 | 0.34 | 63 | 1014.0 |
| 20260905170604 | 84 | 171 | 2.6 | 4.3 | 0.00 | 0.34 | 0.34 | 63 | 1014.1 |
| 20260905170059 | 84 | 183 | 2.6 | 4.3 | 0.00 | 0.34 | 0.34 | 64 | 1014.2 |
| 20260905165554 | 84 | 206 | 3.5 | 4.3 | 0.00 | 0.34 | 0.34 | 63 | 1014.0 |
| 20260905165049 | 82 | 130 | 2.6 | 2.6 | 0.00 | 0.34 | 0.34 | 68 | 1014.1 |
| 20260905164544 | 83 | 134 | 5.2 | 6.1 | 0.00 | 0.34 | 0.34 | 64 | 1013.8 |
| 20260905164044 | 83 | 113 | 0.0 | 0.9 | 0.00 | 0.34 | 0.34 | 67 | 1013.8 |
| 20260905163540 | 82 | 160 | 7.0 | 7.8 | 0.00 | 0.34 | 0.34 | 66 | 1013.8 |
| 20260905163036 | 81 | 119 | 3.5 | 4.3 | 0.00 | 0.34 | 0.34 | 68 | 1014.1 |
| 20260905162532 | 82 | 118 | 4.3 | 5.2 | 0.00 | 0.34 | 0.34 | 66 | 1014.2 |
| 20260905162026 | 82 | 114 | 0.9 | 1.7 | 0.00 | 0.34 | 0.34 | 68 | 1014.5 |
| 20260905161526 | 81 | 138 | 3.5 | 5.2 | 0.00 | 0.34 | 0.34 | 70 | 1014.4 |
| 20260905161024 | 82 | 63 | 2.6 | 2.6 | 0.00 | 0.34 | 0.34 | 66 | 1014.6 |
| 20260905160517 | 80 | 135 | 0.0 | 0.9 | 0.00 | 0.34 | 0.34 | 72 | 1014.5 |
| 20260905160012 | 81 | 115 | 3.5 | 5.2 | 0.00 | 0.34 | 0.34 | 70 | 1014.6 |
| 20260905155512 | 80 | 100 | 0.9 | 0.9 | 0.00 | 0.34 | 0.34 | 71 | 1014.9 |
| 20260905155010 | 80 | 85 | 0.0 | 0.9 | 0.00 | 0.34 | 0.34 | 71 | 1014.5 |
| 20260905154506 | 81 | 107 | 2.6 | 2.6 | 0.00 | 0.34 | 0.34 | 71 | 1014.6 |
| 20260905154001 | 80 | 49 | 0.9 | 1.7 | 0.00 | 0.34 | 0.34 | 73 | 1014.7 |
| 20260905153457 | 80 | 97 | 0.9 | 1.7 | 0.00 | 0.34 | 0.34 | 73 | 1014.5 |
| 20260905152951 | 78 | 131 | 3.5 | 5.2 | 0.00 | 0.34 | 0.34 | 75 | 1014.5 |
| 20260905152451 | 77 | 107 | 0.0 | 0.9 | 0.00 | 0.34 | 0.34 | 79 | 1014.4 |
| 20260905151946 | 75 | 68 | 0.9 | 1.7 | 0.00 | 0.34 | 0.34 | 82 | 1014.4 |
| 20260905151441 | 76 | 99 | 0.9 | 0.9 | 0.00 | 0.34 | 0.34 | 81 | 1014.7 |
| 20260905150936 | 76 | 74 | 1.7 | 2.6 | 0.00 | 0.34 | 0.34 | 80 | 1014.5 |
| 20260905150437 | 75 | 25 | 2.6 | 4.3 | 0.00 | 0.34 | 0.34 | 81 | 1014.7 |
| 20260905145933 | 75 | 80 | 0.9 | 2.6 | 0.00 | 0.34 | 0.34 | 85 | 1014.8 |
| 20260905145427 | 76 | 70 | 0.9 | 1.7 | 0.00 | 0.34 | 0.34 | 83 | 1014.8 |
| 20260905144927 | 75 | 94 | 0.9 | 1.7 | 0.00 | 0.34 | 0.34 | 85 | 1014.9 |
| 20260905144422 | 75 | 22 | 1.7 | 2.6 | 0.00 | 0.34 | 0.34 | 87 | 1014.7 |
| 20260905143921 | 75 | 25 | 0.9 | 1.7 | 0.00 | 0.34 | 0.34 | 88 | 1014.7 |
| 20260905143415 | 74 | 102 | 0.0 | 0.9 | 0.00 | 0.34 | 0.34 | 88 | 1014.8 |
| 20260905142914 | 74 | 75 | 1.7 | 2.6 | 0.00 | 0.34 | 0.34 | 88 | 1014.9 |
| 20260905142413 | 74 | 96 | 0.9 | 0.9 | 0.00 | 0.34 | 0.34 | 89 | 1014.9 |
| 20260905141909 | 74 | 40 | 2.6 | 4.3 | 0.00 | 0.34 | 0.34 | 90 | 1014.8 |
| 20260905141404 | 73 | 79 | 0.0 | 0.9 | 0.00 | 0.34 | 0.34 | 92 | 1014.4 |
| 20260905140900 | 73 | 313 | 1.7 | 1.7 | 0.00 | 0.34 | 0.34 | 92 | 1014.3 |
| 20260905140355 | 73 | 311 | 3.5 | 4.3 | 0.00 | 0.34 | 0.34 | 92 | 1014.2 |
| 20260905135854 | 73 | 325 | 2.6 | 4.3 | 0.00 | 0.34 | 0.34 | 92 | 1013.8 |
| 20260905135350 | 72 | 81 | 2.6 | 2.6 | 0.00 | 0.34 | 0.34 | 93 | 1013.7 |
| 20260905134845 | 72 | 103 | 1.7 | 2.6 | 0.00 | 0.34 | 0.34 | 93 | 1012.9 |
| 20260905134343 | 72 | 323 | 7.0 | 7.8 | 0.00 | 0.34 | 0.34 | 92 | 1012.7 |
| 20260905133838 | 72 | 207 | 6.1 | 7.8 | 0.00 | 0.34 | 0.34 | 93 | 1011.7 |